Flag for Canada Weather past 2 weeks in Miramichi, New Brunswick, Canada

Now
18 °F

Sunny.


Feels Like: 7 °F
Forecast: N/A
Wind: 8 mph from West

Location: Bathurst Airport

Current Time: Mar 3, 2015 at 5:15:46 PM

Latest Report: Mar 3, 2015 at 4:00 PM


Visibility: 15 mi

Pressure: 30.09 "Hg

Humidity: 27%

Dew point: -11 °F

Location of MiramichiLocation

Historic Weather in Miramichi — Graph

°F

Miramichi temperature yesterday

Maximum temperature yesterday: 27 °F (at 3:00 PM)
Minimum temperature yesterday: 16 °F (at 5:00 AM)
Average temperature yesterday: 20 °F

Past Weeks' High & Low Weather Summary

 TemperatureHumidityPressure
High28 °F (Mar 1, 3:00 PM)93% (Feb 19, 4:00 PM)30.56 "Hg (Feb 19, 4:00 PM)
Low-18 °F (Feb 28, 2:00 AM)25% (Feb 17, 2:00 PM)29.15 "Hg (Feb 20, 5:00 AM)
Average10 °F62%29.94 "Hg
* Reported Feb 16 3:00 PM — Mar 3 3:00 PM, Miramichi, Weather by CustomWeather, © 2015

Note: Actual official high and low records may vary slightly from our data, if they occured in-between our weather recording intervals... More about our weather records

Advertising

Miramichi weather history for previous 24 hours

 ConditionsComfort  
Time TempWeatherWind HumidityBarometerVisibility
3:00 PM
Tue, Mar 3
16 °FPassing clouds.10 mph26%30.08 "Hg15 mi
2:00 PM16 °FSunny.14 mph29%30.07 "Hg15 mi
1:00 PM12 °FSunny.16 mph31%30.09 "Hg15 mi
12:00 PM10 °FSunny.13 mph33%30.09 "Hg15 mi
11:00 AM7 °FSunny.14 mph36%30.09 "Hg15 mi
10:00 AM5 °FSunny.16 mph39%30.10 "Hg15 mi
9:00 AM3 °FSunny.14 mph42%30.08 "Hg15 mi
8:00 AM1 °FPassing clouds.10 mph50%30.06 "Hg15 mi
7:00 AM1 °FPassing clouds.10 mph50%30.04 "Hg15 mi
6:00 AM1 °FLow level haze.14 mph50%30.02 "Hg15 mi
5:00 AM1 °FClear.24 mph50%29.96 "Hg15 mi
4:00 AM3 °FClear.14 mph46%29.92 "Hg15 mi
3:00 AM3 °FClear.21 mph46%29.89 "Hg15 mi
2:00 AM7 °FClear.23 mph43%29.84 "Hg12 mi
1:00 AM9 °FClear.22 mph47%29.80 "Hg12 mi
12:00 AM14 °FLow level haze.21 mph44%29.76 "Hg15 mi
11:00 PM
Mon, Mar 2
16 °FLow level haze.21 mph53%29.71 "Hg15 mi
10:00 PM21 °FPassing clouds.17 mph58%29.69 "Hg15 mi
9:00 PM21 °FPassing clouds.12 mph58%29.67 "Hg15 mi
8:00 PM21 °FOvercast.9 mph63%29.67 "Hg15 mi
7:00 PM21 °FPassing clouds.7 mph63%29.65 "Hg15 mi
6:00 PM23 °FScattered clouds.16 mph54%29.62 "Hg15 mi
5:00 PM27 °FMostly cloudy.15 mph50%29.58 "Hg15 mi
Weather by CustomWeather, © 2015

See weather overviewHow to use our weather pages